Погода в Ноле

Италия     40°55′41″N   14°31′43″E
темп.,
°C
ветер,
м/с
пор.,
м/с
влажн.,
%
обл.,
%
осадки,
мм/ч
давл.,
гПа
погр.,
м
28 сентября, вт
вт2823:00+23сз117399 0.0 1017199
02:00+22с017890 0.0 101784
05:00+22св12758 0.0 1016103
08:00+21всв24715 0.0 1016227
11:00+26всв34518 0.0 10171202
14:00+28всв334135 0.0 10161825
17:00+27в124196 0.0 10161607
20:00+25с125171 0.0 1017486
29 сентября, ср
ср2923:00+23св225139 0.0 1018154
02:00+22всв22499 0.0 101788
05:00+21всв12509 0.0 101765
08:00+21св1151100 0.0 101795
11:00+25зюз2253100 0.1 1018870
14:00+26зюз3350100 0.5 10161529
17:00+25юз335620 0.9 10161246
20:00+23зюз226612 1.0 1017559
30 сентября, чт
чт3023:00+21з117733 0.7 1018180
02:00+20зсз1184100 2.4 1018162
05:00+20ссв0187100 1.5 1018125
08:00+20св118571 2.2 1019206
11:00+24св125610 0.6 1019927
14:00+27в234162 0.8 10181958
17:00+26всв234198 0.3 10181827
20:00+23всв35560 0.4 1020782
1 октября, пт
пт123:00+20всв35640 0.0 1021462
02:00+19всв46710 0.0 1021405
05:00+18всв35743 0.0 1021370
08:00+18всв35679 0.0 1021426
11:00+22всв345178 0.0 1022962
14:00+25всв2240100 0.0 10201482
17:00+25всв334065 0.0 10191761
20:00+22всв235113 0.0 1020538
2 октября, сб
сб223:00+20всв23590 0.0 1020209
02:00+19всв22650 0.0 1020150
05:00+18всв23690 0.0 1019127
08:00+18всв22680 0.0 1019163
11:00+24св11460 0.0 1019804
14:00+26з21350 0.0 10171854
17:00+26зюз42399 0.0 10161776
20:00+23з225460 0.0 1018616